| time (UTC) | temp F | wind direction | speed MPH | gust MPH | rain 1hr in | rain 24hr in | rain mn in | humidity % | barometer mb |
| 20260507220604 | 61 | 342 | 0.0 | 8.0 | 0.00 | 0.15 | 0.12 | 39 | 1008.0 |
| 20260507215603 | 61 | 331 | 4.0 | 9.0 | 0.00 | 0.15 | 0.12 | 38 | 1008.0 |
| 20260507214604 | 61 | 349 | 2.0 | 6.0 | 0.00 | 0.15 | 0.12 | 40 | 1008.1 |
| 20260507213603 | 61 | 354 | 3.0 | 11.0 | 0.00 | 0.15 | 0.12 | 38 | 1008.0 |
| 20260507212604 | 62 | 348 | 2.0 | 8.0 | 0.00 | 0.15 | 0.12 | 40 | 1007.8 |
| 20260507211604 | 62 | 10 | 2.0 | 10.0 | 0.00 | 0.15 | 0.12 | 39 | 1007.8 |
| 20260507210604 | 63 | 258 | 3.0 | 7.0 | 0.00 | 0.15 | 0.12 | 40 | 1008.0 |
| 20260507205625 | 63 | 301 | 1.0 | 12.0 | 0.00 | 0.15 | 0.12 | 39 | 1007.7 |
| 20260507204603 | 63 | 332 | 2.0 | 10.0 | 0.00 | 0.15 | 0.12 | 41 | 1007.7 |
| 20260507203604 | 63 | 2 | 2.0 | 9.0 | 0.00 | 0.15 | 0.12 | 38 | 1007.6 |
| 20260507202625 | 63 | 314 | 2.0 | 13.0 | 0.00 | 0.15 | 0.12 | 40 | 1007.7 |
| 20260507201604 | 63 | 350 | 1.0 | 10.0 | 0.00 | 0.15 | 0.12 | 38 | 1007.6 |
| 20260507200604 | 63 | 18 | 2.0 | 11.0 | 0.00 | 0.15 | 0.12 | 40 | 1007.7 |
| 20260507195624 | 62 | 331 | 0.0 | 12.0 | 0.00 | 0.15 | 0.12 | 41 | 1007.7 |
| 20260507194604 | 61 | 337 | 1.0 | 9.0 | 0.00 | 0.15 | 0.12 | 41 | 1007.8 |
| 20260507193604 | 61 | 338 | 4.0 | 13.0 | 0.00 | 0.16 | 0.12 | 39 | 1008.0 |
| 20260507192604 | 62 | 343 | 2.0 | 9.0 | 0.00 | 0.16 | 0.12 | 42 | 1008.1 |
| 20260507191604 | 62 | 357 | 6.0 | 13.0 | 0.00 | 0.17 | 0.12 | 41 | 1008.3 |
| 20260507190646 | 62 | 273 | 2.0 | 14.0 | 0.00 | 0.18 | 0.12 | 39 | 1008.4 |
| 20260507185603 | 62 | 332 | 3.0 | 13.0 | 0.00 | 0.19 | 0.12 | 38 | 1008.5 |
| 20260507184604 | 62 | 333 | 3.0 | 17.0 | 0.00 | 0.20 | 0.12 | 42 | 1008.3 |
| 20260507183604 | 62 | 353 | 5.0 | 10.0 | 0.00 | 0.20 | 0.12 | 39 | 1008.5 |
| 20260507182603 | 62 | 323 | 3.0 | 9.0 | 0.00 | 0.20 | 0.12 | 39 | 1008.5 |
| 20260507181625 | 62 | 354 | 1.0 | 9.0 | 0.00 | 0.20 | 0.12 | 42 | 1008.6 |
| 20260507180604 | 61 | 349 | 2.0 | 9.0 | 0.00 | 0.20 | 0.12 | 41 | 1008.9 |
| 20260507175625 | 61 | 348 | 4.0 | 7.0 | 0.00 | 0.20 | 0.12 | 43 | 1008.9 |
| 20260507174603 | 61 | 35 | 2.0 | 11.0 | 0.00 | 0.20 | 0.12 | 49 | 1009.0 |
| 20260507173604 | 60 | 348 | 4.0 | 8.0 | 0.00 | 0.20 | 0.12 | 43 | 1009.2 |
| 20260507172603 | 60 | 327 | 5.0 | 9.0 | 0.00 | 0.20 | 0.12 | 41 | 1009.5 |
| 20260507171603 | 61 | 5 | 1.0 | 10.0 | 0.00 | 0.21 | 0.12 | 49 | 1009.5 |
| 20260507170604 | 61 | 352 | 2.0 | 11.0 | 0.00 | 0.21 | 0.12 | 46 | 1009.5 |
| 20260507165604 | 59 | 348 | 2.0 | 9.0 | 0.00 | 0.21 | 0.12 | 50 | 1009.8 |
| 20260507164625 | 60 | 331 | 2.0 | 9.0 | 0.00 | 0.22 | 0.12 | 46 | 1010.1 |
| 20260507163625 | 59 | 354 | 1.0 | 8.0 | 0.00 | 0.22 | 0.12 | 44 | 1010.1 |
| 20260507162603 | 59 | 347 | 2.0 | 9.0 | 0.00 | 0.23 | 0.12 | 45 | 1010.2 |
| 20260507161604 | 58 | 327 | 4.0 | 13.0 | 0.00 | 0.24 | 0.12 | 40 | 1010.4 |
| 20260507160603 | 58 | 339 | 3.0 | 9.0 | 0.00 | 0.24 | 0.12 | 47 | 1010.6 |
| 20260507155604 | 58 | 321 | 3.0 | 10.0 | 0.00 | 0.24 | 0.12 | 49 | 1010.5 |
| 20260507154603 | 58 | 332 | 2.0 | 9.0 | 0.00 | 0.24 | 0.12 | 47 | 1010.7 |
| 20260507153604 | 58 | 47 | 2.0 | 8.0 | 0.00 | 0.24 | 0.12 | 51 | 1010.6 |
| 20260507152604 | 57 | 12 | 2.0 | 8.0 | 0.00 | 0.24 | 0.12 | 50 | 1010.8 |
| 20260507151603 | 57 | 25 | 2.0 | 9.0 | 0.00 | 0.24 | 0.12 | 48 | 1011.0 |
| 20260507150604 | 57 | 326 | 3.0 | 11.0 | 0.00 | 0.24 | 0.12 | 48 | 1011.0 |
| 20260507145603 | 56 | 339 | 6.0 | 19.0 | 0.00 | 0.24 | 0.12 | 46 | 1011.1 |
| 20260507144604 | 56 | 31 | 2.0 | 11.0 | 0.00 | 0.24 | 0.12 | 50 | 1011.1 |
| 20260507143604 | 56 | 316 | 4.0 | 9.0 | 0.00 | 0.24 | 0.12 | 50 | 1011.0 |
| 20260507142604 | 55 | 321 | 5.0 | 12.0 | 0.00 | 0.24 | 0.12 | 50 | 1011.0 |
| 20260507141603 | 55 | 313 | 6.0 | 12.0 | 0.00 | 0.24 | 0.12 | 51 | 1010.9 |
| 20260507140603 | 54 | 5 | 6.0 | 10.0 | 0.00 | 0.24 | 0.12 | 52 | 1011.3 |
| 20260507135625 | 54 | 354 | 4.0 | 13.0 | 0.00 | 0.24 | 0.12 | 52 | 1011.1 |
| 20260507134604 | 53 | 0 | 2.0 | 12.0 | 0.00 | 0.24 | 0.12 | 55 | 1011.1 |
| 20260507133603 | 53 | 338 | 3.0 | 11.0 | 0.00 | 0.24 | 0.12 | 55 | 1011.1 |
| 20260507132624 | 52 | 348 | 3.0 | 10.0 | 0.00 | 0.24 | 0.12 | 59 | 1011.2 |
| 20260507131604 | 52 | 337 | 1.0 | 11.0 | 0.00 | 0.24 | 0.12 | 66 | 1011.2 |
| 20260507130603 | 51 | 329 | 2.0 | 6.0 | 0.00 | 0.24 | 0.12 | 64 | 1011.1 |
| 20260507125604 | 50 | 317 | 3.0 | 9.0 | 0.00 | 0.24 | 0.12 | 67 | 1011.0 |
| 20260507124603 | 51 | 298 | 2.0 | 11.0 | 0.00 | 0.24 | 0.12 | 74 | 1011.0 |
| 20260507123603 | 50 | 349 | 0.0 | 11.0 | 0.00 | 0.24 | 0.12 | 75 | 1010.9 |
| 20260507122603 | 50 | 355 | 2.0 | 12.0 | 0.00 | 0.24 | 0.12 | 81 | 1010.8 |
| 20260507121604 | 49 | 295 | 0.0 | 0.0 | 0.00 | 0.24 | 0.12 | 91 | 1010.9 |
| 20260507120603 | 49 | 294 | 0.0 | 0.0 | 0.00 | 0.24 | 0.12 | 91 | 1011.1 |
| 20260507115625 | 48 | 295 | 0.0 | 3.0 | 0.00 | 0.24 | 0.12 | 92 | 1010.9 |
| 20260507114624 | 48 | 292 | 0.0 | 9.0 | 0.00 | 0.24 | 0.12 | 92 | 1010.8 |
| 20260507113603 | 48 | 252 | 2.0 | 4.0 | 0.00 | 0.24 | 0.12 | 92 | 1010.6 |
| 20260507112603 | 47 | 252 | 0.0 | 5.0 | 0.00 | 0.24 | 0.12 | 93 | 1010.7 |
| 20260507111624 | 47 | 103 | 0.0 | 3.0 | 0.00 | 0.24 | 0.12 | 93 | 1010.6 |
| 20260507110604 | 47 | 355 | 0.0 | 4.0 | 0.00 | 0.24 | 0.12 | 92 | 1010.4 |
| 20260507105624 | 47 | 355 | 0.0 | 3.0 | 0.00 | 0.24 | 0.12 | 93 | 1010.3 |
| 20260507104624 | 47 | 355 | 0.0 | 0.0 | 0.00 | 0.24 | 0.12 | 94 | 1010.1 |
| 20260507103625 | 47 | 355 | 0.0 | 2.0 | 0.00 | 0.24 | 0.12 | 94 | 1009.9 |
| 20260507102603 | 47 | 355 | 0.0 | 0.0 | 0.00 | 0.24 | 0.12 | 94 | 1009.9 |
| 20260507100625 | 47 | 354 | 0.0 | 3.0 | 0.00 | 0.24 | 0.12 | 93 | 1009.5 |
| 20260507095624 | 47 | 354 | 0.0 | 5.0 | 0.00 | 0.24 | 0.12 | 93 | 1009.3 |
| 20260507094604 | 47 | 355 | 0.0 | 3.0 | 0.00 | 0.24 | 0.12 | 93 | 1009.3 |
| 20260507093603 | 47 | 354 | 0.0 | 2.0 | 0.00 | 0.24 | 0.12 | 93 | 1009.4 |
| 20260507092603 | 47 | 354 | 0.0 | 8.0 | 0.00 | 0.24 | 0.12 | 93 | 1009.3 |
| 20260507091604 | 47 | 359 | 0.0 | 5.0 | 0.00 | 0.24 | 0.12 | 93 | 1009.4 |
| 20260507090603 | 48 | 5 | 0.0 | 5.0 | 0.00 | 0.24 | 0.12 | 94 | 1009.4 |
| 20260507085604 | 48 | 5 | 0.0 | 10.0 | 0.00 | 0.24 | 0.12 | 94 | 1009.5 |
| 20260507084603 | 48 | 14 | 2.0 | 5.0 | 0.00 | 0.24 | 0.12 | 94 | 1009.5 |
| 20260507083603 | 48 | 17 | 0.0 | 0.0 | 0.00 | 0.24 | 0.12 | 94 | 1009.4 |
| 20260507082603 | 48 | 17 | 0.0 | 4.0 | 0.00 | 0.24 | 0.12 | 94 | 1009.4 |
| 20260507081603 | 48 | 18 | 0.0 | 9.0 | 0.00 | 0.24 | 0.12 | 94 | 1009.5 |
| 20260507080603 | 48 | 279 | 0.0 | 7.0 | 0.00 | 0.24 | 0.12 | 94 | 1009.7 |
| 20260507075603 | 48 | 275 | 0.0 | 0.0 | 0.02 | 0.24 | 0.12 | 94 | 1009.4 |
| 20260507074603 | 49 | 275 | 0.0 | 3.0 | 0.01 | 0.23 | 0.11 | 94 | 1009.7 |
| 20260507073604 | 49 | 275 | 0.0 | 0.0 | 0.01 | 0.23 | 0.11 | 94 | 1009.7 |
| 20260507072603 | 49 | 275 | 0.0 | 7.0 | 0.01 | 0.23 | 0.11 | 94 | 1009.9 |
| 20260507071625 | 49 | 271 | 1.0 | 4.0 | 0.01 | 0.23 | 0.11 | 94 | 1009.7 |
| 20260507070603 | 49 | 271 | 1.0 | 7.0 | 0.01 | 0.23 | 0.11 | 93 | 1009.7 |
| 20260507065603 | 49 | 310 | 0.0 | 9.0 | 0.06 | 0.22 | 0.10 | 93 | 1009.6 |
| 20260507064625 | 50 | 330 | 2.0 | 6.0 | 0.05 | 0.21 | 0.09 | 93 | 1009.5 |
| 20260507063603 | 50 | 319 | 0.0 | 6.0 | 0.03 | 0.19 | 0.07 | 93 | 1009.8 |
| 20260507062604 | 50 | 326 | 0.0 | 0.0 | 0.02 | 0.18 | 0.06 | 92 | 1009.7 |
| 20260507061603 | 51 | 326 | 0.0 | 0.0 | 0.02 | 0.18 | 0.06 | 92 | 1009.4 |
| 20260507060625 | 51 | 326 | 0.0 | 0.0 | 0.00 | 0.16 | 0.04 | 92 | 1009.7 |
| 20260507055624 | 51 | 326 | 0.0 | 3.0 | 0.03 | 0.15 | 0.03 | 90 | 1009.2 |
| 20260507054604 | 52 | 327 | 0.0 | 3.0 | 0.02 | 0.14 | 0.02 | 88 | 1009.1 |
| 20260507053604 | 52 | 328 | 2.0 | 9.0 | 0.00 | 0.12 | 0.00 | 86 | 1008.9 |
| 20260507052603 | 52 | 317 | 1.0 | 5.0 | 0.00 | 0.12 | 0.00 | 86 | 1008.6 |
| 20260507051625 | 52 | 325 | 0.0 | 8.0 | 0.00 | 0.12 | 0.00 | 86 | 1008.8 |
| 20260507050603 | 52 | 330 | 2.0 | 6.0 | 0.00 | 0.12 | 0.00 | 84 | 1008.8 |
| 20260507045603 | 52 | 332 | 0.0 | 13.0 | 0.00 | 0.12 | 0.00 | 85 | 1008.8 |
| 20260507044603 | 52 | 283 | 4.0 | 12.0 | 0.00 | 0.12 | 0.00 | 85 | 1009.0 |
| 20260507043624 | 52 | 300 | 0.0 | 9.0 | 0.00 | 0.12 | 0.00 | 86 | 1008.9 |
| 20260507042603 | 53 | 273 | 0.0 | 6.0 | 0.00 | 0.12 | 0.00 | 87 | 1009.0 |
| 20260507041603 | 53 | 273 | 0.0 | 9.0 | 0.00 | 0.12 | 0.00 | 87 | 1009.0 |
| 20260507040603 | 53 | 302 | 0.0 | 9.0 | 0.00 | 0.12 | 0.00 | 87 | 1009.2 |
| 20260507035603 | 53 | 18 | 0.0 | 11.0 | 0.00 | 0.12 | 0.12 | 88 | 1009.1 |
| 20260507034603 | 53 | 359 | 1.0 | 10.0 | 0.00 | 0.12 | 0.12 | 87 | 1009.0 |
| 20260507033624 | 53 | 30 | 0.0 | 6.0 | 0.00 | 0.12 | 0.12 | 88 | 1009.1 |
| 20260507032624 | 53 | 55 | 0.0 | 7.0 | 0.00 | 0.12 | 0.12 | 88 | 1008.8 |
| 20260507031603 | 54 | 179 | 0.0 | 0.0 | 0.00 | 0.12 | 0.12 | 89 | 1008.6 |
| 20260507030603 | 54 | 179 | 0.0 | 4.0 | 0.00 | 0.12 | 0.12 | 90 | 1008.8 |
| 20260507025603 | 54 | 179 | 4.0 | 6.0 | 0.00 | 0.12 | 0.12 | 90 | 1008.6 |
| 20260507024603 | 54 | 185 | 0.0 | 5.0 | 0.00 | 0.12 | 0.12 | 90 | 1008.8 |
| 20260507023603 | 55 | 236 | 1.0 | 6.0 | 0.00 | 0.12 | 0.12 | 89 | 1008.8 |
| 20260507022603 | 55 | 262 | 1.0 | 8.0 | 0.00 | 0.12 | 0.12 | 89 | 1009.0 |
| 20260507020625 | 55 | 349 | 1.0 | 13.0 | 0.00 | 0.12 | 0.12 | 90 | 1009.1 |
| 20260507015603 | 56 | 339 | 3.0 | 15.0 | 0.00 | 0.12 | 0.12 | 91 | 1008.9 |
| 20260507014603 | 57 | 13 | 0.0 | 8.0 | 0.00 | 0.12 | 0.12 | 92 | 1008.8 |
| 20260507013604 | 57 | 284 | 4.0 | 10.0 | 0.00 | 0.12 | 0.12 | 92 | 1008.5 |
| 20260507012603 | 58 | 324 | 1.0 | 11.0 | 0.00 | 0.12 | 0.12 | 92 | 1008.6 |
| 20260507011647 | 58 | 334 | 5.0 | 9.0 | 0.00 | 0.12 | 0.12 | 93 | 1008.2 |
| 20260507010603 | 59 | 329 | 1.0 | 10.0 | 0.00 | 0.12 | 0.12 | 93 | 1008.2 |
| 20260507005603 | 61 | 303 | 5.0 | 10.0 | 0.03 | 0.12 | 0.12 | 95 | 1008.1 |
| 20260507004603 | 61 | 250 | 0.0 | 0.0 | 0.01 | 0.10 | 0.10 | 95 | 1007.3 |
| 20260507003625 | 61 | 250 | 0.0 | 0.0 | 0.00 | 0.09 | 0.09 | 95 | 1007.0 |
| 20260507002624 | 61 | 250 | 0.0 | 3.0 | 0.00 | 0.09 | 0.09 | 95 | 1007.0 |
| 20260507001603 | 61 | 249 | 0.0 | 2.0 | 0.00 | 0.09 | 0.09 | 95 | 1007.0 |
| 20260507000604 | 61 | 250 | 0.0 | 0.0 | 0.00 | 0.09 | 0.09 | 95 | 1007.1 |
| 20260506235603 | 62 | 250 | 0.0 | 0.0 | 0.00 | 0.09 | 0.09 | 95 | 1007.0 |
| 20260506234603 | 62 | 250 | 0.0 | 5.0 | 0.00 | 0.09 | 0.09 | 94 | 1006.9 |
| 20260506233603 | 62 | 252 | 1.0 | 5.0 | 0.00 | 0.09 | 0.09 | 94 | 1006.7 |
| 20260506231604 | 62 | 259 | 1.0 | 7.0 | 0.00 | 0.09 | 0.09 | 94 | 1006.9 |
| 20260506230604 | 62 | 213 | 0.0 | 6.0 | 0.00 | 0.09 | 0.09 | 95 | 1007.0 |
| 20260506225603 | 62 | 215 | 0.0 | 4.0 | 0.00 | 0.09 | 0.09 | 95 | 1006.9 |
| 20260506224603 | 62 | 214 | 2.0 | 6.0 | 0.00 | 0.09 | 0.09 | 94 | 1006.8 |
| 20260506223604 | 62 | 213 | 2.0 | 5.0 | 0.00 | 0.09 | 0.09 | 94 | 1006.6 |
| 20260506222603 | 62 | 213 | 1.0 | 5.0 | 0.00 | 0.09 | 0.09 | 94 | 1006.7 |
| 20260506221603 | 62 | 214 | 0.0 | 7.0 | 0.00 | 0.09 | 0.09 | 94 | 1006.5 |